Flag for Tunisia Weather past 2 weeks in Kairouan, Tunisia

Now
86 °F

Sunny.


Feels Like: 85 °F
Forecast: 69 / 98 °F
Wind: 2 mph from Southwest

Location: Kairouan Airport

Current Time: Aug 31, 2015 at 10:22:14 AM

Latest Report: Aug 31, 2015 at 10:00 AM


Visibility: 10 mi

Pressure: 30.07 "Hg

Humidity: 40%

Dew point: 59 °F

Location of KairouanLocation

Historic Weather in Kairouan — Graph

°F

Kairouan temperature yesterday

Maximum temperature yesterday: 93 °F (at 2:00 PM)
Minimum temperature yesterday: 73 °F (at 3:00 AM)
Average temperature yesterday: 83 °F

Past Weeks' High & Low Weather Summary

 TemperatureHumidityPressure
High104 °F (Aug 24, 2:00 PM)94% (Aug 16, 9:00 AM)30.15 "Hg (Aug 16, 9:00 AM)
Low70 °F (Aug 31, 6:00 AM)26% (Aug 24, 2:00 PM)29.80 "Hg (Aug 18, 4:00 PM)
Average84 °F59%30.01 "Hg
* Reported Aug 16 9:00 AM — Aug 31 9:00 AM, Kairouan, Weather by CustomWeather, © 2015

Note: Actual official high and low records may vary slightly from our data, if they occured in-between our weather recording intervals... More about our weather records

Advertising

Kairouan weather history for previous 24 hours

 ConditionsComfort  
Time TempWeatherWind HumidityBarometerVisibility
9:00 AM
Mon, Aug 31
82 °FSunny.No wind58%30.07 "Hg10 mi
8:00 AM77 °FSunny.1 mph61%30.07 "Hg10 mi
7:00 AM73 °FSunny.No wind65%30.07 "Hg10 mi
6:00 AM70 °FMild.No wind73%30.07 "HgN/A
5:00 AM72 °FMild.No wind73%30.07 "HgN/A
4:00 AM72 °FMild.No wind73%30.07 "HgN/A
3:00 AM73 °FMild.No wind69%30.09 "HgN/A
2:00 AM75 °FMild.No wind69%30.09 "HgN/A
1:00 AM75 °FMild.No wind69%30.09 "HgN/A
12:00 AM77 °FWarm.No wind65%30.12 "HgN/A
11:00 PM
Sun, Aug 30
79 °FWarm.No wind61%30.12 "HgN/A
10:00 PM81 °FWarm.No wind58%30.12 "HgN/A
9:00 PM82 °FWarm.3 mph51%30.09 "HgN/A
8:00 PM82 °FPassing clouds.3 mph51%30.07 "HgN/A
7:00 PM86 °FPassing clouds.7 mph35%30.07 "HgN/A
6:00 PM90 °FPassing clouds.7 mph31%30.07 "HgN/A
5:00 PM93 °FPassing clouds.7 mph32%30.07 "HgN/A
4:00 PM93 °FPassing clouds.5 mph32%30.07 "HgN/A
3:00 PM93 °FPassing clouds.5 mph32%30.07 "HgN/A
2:00 PM93 °FPassing clouds.7 mph30%30.09 "HgN/A
1:00 PM91 °FPassing clouds.2 mph30%30.09 "HgN/A
12:00 PM90 °FPassing clouds.2 mph33%30.12 "HgN/A
11:00 AM88 °FPassing clouds.2 mph43%30.12 "HgN/A
10:00 AM84 °FPassing clouds.2 mph58%30.15 "HgN/A
Weather by CustomWeather, © 2015

See weather overviewHow to use our weather pages